Location: Alma
(34.4195°N, 97.6123°W)
Time: 06:45:41
(UTC+00:00)

Hubble Space Telescope - Pass Details

Date: 31 May 2024
Orbit: 511 x 514 km, 28.5° (Epoch: 13 June)

Event Time Altitude Azimuth Distance (km) Brightness Sun altitude
Rises 02:24:49 0° 255° (WSW) 2,612 4.9 -9.3°
Reaches altitude 10° 02:27:11 10° 246° (WSW) 1,725 3.8 -9.7°
Maximum altitude 02:30:49 34° 180° (S) 844 1.5 -10.3°
Enters shadow 02:33:33 16° 120° (ESE) 1,409 2.2 -10.7°
